Location: Dvur Kralove nad Labem
(50.4330°N, 15.8170°E)
Time: 17:05:04
(UTC+01:00)

ISS - Pass Details

Date: 30 October 2019
Orbit: 412 x 421 km, 51.6° (Epoch: 14 November)

Event Time Altitude Azimuth Distance (km) Brightness Sun altitude
Exits shadow 05:44:43 13° 258° (WSW) 1,349 -1.8 -9.8°
Maximum altitude 05:47:43 86° 347° (NNW) 428 -3.8 -9.4°
Drops below altitude 10° 05:51:07 10° 77° (ENE) 1,506 0.3 -8.8°
Sets 05:53:13 0° 77° (ENE) 2,370 1.5 -8.5°
